Flag for India Weather past 2 weeks in Chennai, Tamil Nadu, India

Now
81 °F

Thunderstorms. Passing clouds.


Feels Like: 86 °F
Forecast: 81 / 95 °F
Wind: 14 mph from Northwest

Location: Madras / Minambakkam

Current Time: Aug 31, 2015 at 12:36:21 AM

Latest Report: Aug 31, 2015 at 12:10 AM


Visibility: 3 mi

Pressure: 29.80 "Hg

Humidity: 84%

Dew point: 75 °F

Location of ChennaiLocation

Historic Weather in Chennai — Graph

°F

Chennai temperature yesterday

Maximum temperature yesterday: 99 °F (at 3:10 PM)
Minimum temperature yesterday: 82 °F (at 3:10 AM)
Average temperature yesterday: 89 °F

Past Weeks' High & Low Weather Summary

 TemperatureHumidityPressure
High99 °F (Aug 20, 1:40 PM)94% (Aug 16, 5:40 AM)29.83 "Hg (Aug 16, 5:40 AM)
Low75 °F (Aug 21, 2:40 AM)44% (Aug 25, 3:10 PM)29.59 "Hg (Aug 26, 3:40 PM)
Average86 °F74%29.73 "Hg
* Reported Aug 15 10:40 PM — Aug 30 11:10 PM, Chennai, Weather by CustomWeather, © 2015

Note: Actual official high and low records may vary slightly from our data, if they occured in-between our weather recording intervals... More about our weather records

Advertising

Chennai weather history for previous 24 hours

 ConditionsComfort  
Time TempWeatherWind HumidityBarometerVisibility
11:10 PM
Sun, Aug 30
86 °FPassing clouds.6 mph75%29.77 "Hg3 mi
10:40 PM86 °FPassing clouds.6 mph75%29.77 "Hg3 mi
10:10 PM84 °FPassing clouds.No wind79%29.77 "Hg3 mi
9:40 PM84 °FPassing clouds.8 mph79%29.77 "Hg3 mi
9:10 PM88 °FPassing clouds.5 mph75%29.77 "Hg3 mi
8:40 PM88 °FPassing clouds.7 mph70%29.71 "Hg3 mi
8:10 PM88 °FPassing clouds.7 mph70%29.71 "Hg3 mi
7:40 PM88 °FPassing clouds.7 mph70%29.68 "Hg3 mi
7:10 PM88 °FPassing clouds.9 mph70%29.68 "Hg3 mi
6:10 PM90 °FScattered clouds.5 mph67%29.65 "Hg4 mi
5:40 PM90 °FScattered clouds.6 mph67%29.65 "Hg4 mi
5:10 PM91 °FScattered clouds.5 mph63%29.62 "Hg4 mi
4:40 PM93 °FScattered clouds.6 mph59%29.62 "Hg4 mi
4:10 PM95 °FScattered clouds.6 mph56%29.65 "Hg5 mi
3:40 PM97 °FPassing clouds.5 mph47%29.65 "Hg5 mi
3:10 PM99 °FPassing clouds.5 mph44%29.65 "Hg5 mi
2:40 PM97 °FScattered clouds.7 mph47%29.65 "Hg5 mi
2:10 PM97 °FScattered clouds.6 mph47%29.68 "Hg5 mi
1:40 PM97 °FScattered clouds.6 mph47%29.71 "Hg5 mi
1:10 PM97 °FPassing clouds.8 mph47%29.71 "Hg5 mi
12:40 PM95 °FPassing clouds.9 mph50%29.71 "Hg5 mi
12:10 PM93 °FPassing clouds.8 mph56%29.74 "Hg5 mi
11:40 AM93 °FPassing clouds.8 mph56%29.74 "Hg5 mi
11:10 AM93 °FPassing clouds.7 mph56%29.74 "Hg5 mi
10:40 AM93 °FPassing clouds.6 mph56%29.77 "Hg5 mi
10:10 AM91 °FPassing clouds.7 mph63%29.77 "Hg4 mi
9:40 AM90 °FPassing clouds.8 mph67%29.77 "Hg4 mi
9:10 AM88 °FScattered clouds.8 mph75%29.77 "Hg4 mi
8:40 AM86 °FScattered clouds.8 mph79%29.77 "Hg4 mi
8:10 AM86 °FBroken clouds.7 mph79%29.74 "Hg4 mi
7:40 AM84 °FBroken clouds.5 mph84%29.74 "Hg4 mi
7:10 AM82 °FFog.6 mph84%29.74 "Hg3 mi
6:40 AM82 °FFog.5 mph84%29.74 "Hg3 mi
5:40 AM82 °FFog.6 mph84%29.71 "Hg3 mi
5:10 AM82 °FFog.8 mph84%29.71 "Hg3 mi
4:40 AM82 °FPartly cloudy.8 mph84%29.71 "Hg3 mi
4:10 AM82 °FPartly cloudy.7 mph84%29.71 "Hg3 mi
3:10 AM82 °FLight rain. Partly cloudy.9 mph84%29.71 "Hg4 mi
2:40 AM84 °FPartly cloudy.9 mph74%29.71 "Hg4 mi
2:10 AM84 °FPartly cloudy.12 mph74%29.71 "Hg4 mi
1:40 AM84 °FPartly cloudy.12 mph79%29.71 "Hg4 mi
1:10 AM86 °FPartly cloudy.12 mph75%29.71 "Hg4 mi
12:40 AM86 °FPassing clouds.12 mph75%29.74 "Hg4 mi
12:10 AM86 °FPassing clouds.12 mph75%29.74 "Hg4 mi
Weather by CustomWeather, © 2015

See weather overviewHow to use our weather pages